Flag for Canada Weather past 2 weeks in Prince George, British Columbia, Canada

Now
9 °F

Clear.


Feels Like: 9 °F
Forecast: 11 / 32 °F
Wind: 2 mph from South

Location: Prince George

Current Time: Feb 28, 2015 at 7:08:17 AM

Latest Report: Feb 28, 2015 at 6:00 AM


Visibility: 9 mi

Pressure: 30.44 "Hg

Humidity: 85%

Dew point: 5 °F

Location of Prince GeorgeLocation

Historic Weather in Prince George — Graph

°F

Prince George temperature yesterday

Maximum temperature yesterday: 32 °F (at 2:00 PM)
Minimum temperature yesterday: 16 °F (at 11:00 PM)
Average temperature yesterday: 25 °F

Past Weeks' High & Low Weather Summary

 TemperatureHumidityPressure
High45 °F (Feb 24, 3:00 PM)100% (Feb 13, 4:00 PM)30.65 "Hg (Feb 13, 4:00 PM)
Low9 °F (Feb 28, 5:00 AM)39% (Feb 24, 3:00 AM)30.03 "Hg (Feb 18, 2:00 PM)
Average31 °F80%30.34 "Hg
* Reported Feb 13 6:00 AM — Feb 28 6:00 AM, Prince George, Weather by CustomWeather, © 2015

Note: Actual official high and low records may vary slightly from our data, if they occured in-between our weather recording intervals... More about our weather records

Advertising

Prince George weather history for previous 24 hours

 ConditionsComfort  
Time TempWeatherWind HumidityBarometerVisibility
6:00 AM
Sat, Feb 28
9 °FClear.2 mph85%30.44 "Hg9 mi
5:00 AM9 °FClear.No wind92%30.43 "Hg9 mi
4:00 AM12 °FClear.3 mph85%30.40 "Hg9 mi
3:00 AM12 °FClear.3 mph85%30.39 "Hg9 mi
2:00 AM14 °FClear.3 mph85%30.38 "Hg9 mi
1:00 AM14 °FClear.No wind79%30.38 "Hg9 mi
12:00 AM14 °FClear.No wind79%30.37 "Hg9 mi
11:00 PM
Fri, Feb 27
16 °FClear.3 mph79%30.37 "Hg9 mi
10:00 PM19 °FClear.2 mph68%30.35 "Hg9 mi
9:00 PM25 °FClear.5 mph54%30.33 "Hg9 mi
8:00 PM25 °FClear.2 mph54%30.34 "Hg9 mi
7:00 PM28 °FClear.8 mph47%30.33 "Hg9 mi
6:00 PM30 °FClear.8 mph43%30.31 "Hg9 mi
5:00 PM32 °FSunny.10 mph44%30.29 "Hg9 mi
4:00 PM32 °FSunny.7 mph47%30.29 "Hg9 mi
3:00 PM32 °FSunny.9 mph44%30.28 "Hg9 mi
2:00 PM32 °FSunny.9 mph44%30.28 "Hg9 mi
1:00 PM30 °FSunny.12 mph47%30.30 "Hg9 mi
12:00 PM28 °FSunny.12 mph51%30.30 "Hg9 mi
11:00 AM25 °FSunny.10 mph59%30.29 "Hg9 mi
10:00 AM23 °FSunny.8 mph63%30.29 "Hg9 mi
9:00 AM21 °FSunny.15 mph63%30.28 "Hg9 mi
8:00 AM19 °FSunny.14 mph68%30.26 "Hg9 mi
7:00 AM19 °FClear.14 mph68%30.23 "Hg9 mi
Weather by CustomWeather, © 2015

See weather overviewHow to use our weather pages